Regional Weather Roundup
Issued by NWS Midland/Odessa, TX

Skip options and go directly to product.
Home | Oldest Version | Previous Version | Current Version | All | Text Only | Save Text | Print | Product List | Glossary On

Skip product version selection by date and time.   
422
ASUS44 KMAF 201510
RWRMAF
MIDLAND AREA WEATHER ROUNDUP
NATIONAL WEATHER SERVICE MIDLAND TX
900 AM CST FRI JAN 20 2017

...IN SOUTHWEST TEXAS AND SOUTHEAST NEW MEXICO...

CITY           SKY/WX    TMP DP  RH WIND       PRES   REMARKS
ALPINE         CLOUDY    47  25  42 W15       29.91R
ANDREWS        FAIR      48  30  49 SW8G17    29.74F
ARTESIA        SUNNY     46  30  53 S13       29.72S
BIG SPRING     MOSUNNY   46  35  64 S7        29.77S
CARLSBAD       SUNNY     54  27  35 W16G35    29.70F
DRYDEN           N/A     53  30  41 W6        29.81R
FORT STOCKTON  SUNNY     51  28  41 SW12      29.79S
GUAD PASS      NOT AVBL
HOBBS          SUNNY     45  28  53 SW13      29.74R WCI  38
MARFA          MOSUNNY   34  27  75 E3        29.90R
MIDLAND AIRPK  SUNNY     53  30  41 W16       29.76R
MIDLAND INTL   SUNNY     54  27  35 SW22      29.76R
ODESSA         SUNNY     52  28  39 W15       29.77R
PECOS          MOSUNNY   48  32  53 NW3       29.78S
PRESIDIO       FAIR      49  26  41 N5        29.86R
SEMINOLE       SUNNY     45  31  59 SW13      29.74R WCI  39
SNYDER         SUNNY     48  35  59 SW9       29.72S
WINK           MOSUNNY   45  33  63 SW5       29.77R
$$
...OTHER STATIONS IN TEXAS...

CITY           SKY/WX    TMP DP  RH WIND       PRES   REMARKS
ABILENE        SUNNY     55  35  47 W13       29.70R
AMARILLO       SUNNY     47  29  49 W32G44    29.55S WCI  38
AUSTIN         FOG       56  56 100 S5        29.80R VSB 1/4
BROWNSVILLE    CLOUDY    70  69  97 E7        29.77R FOG
CORPUS CHRISTI FOG       64  64 100 NE7       29.78S VSB 3/4
DALLAS FTW     CLOUDY    53  41  63 SW10      29.66R
DEL RIO        PTSUNNY   47  45  93 CALM      29.81R
EL PASO        PTCLDY    47  26  44 SW8       29.83R
HOUSTON INT    CLOUDY    61  58  90 SW8       29.84R FOG
LUBBOCK        MOSUNNY   48  34  58 W17       29.65S
SAN ANGELO     SUNNY     54  32  43 SW12      29.78R
SAN ANTONIO    FOG       54  54 100 SE6       29.81R VSB 1/16
WACO           MOSUNNY   53  46  77 S9        29.76R
WICHITA FALLS  NOT AVBL
$$
...OTHER LOCATIONS IN NEW MEXICO...

CITY           SKY/WX    TMP DP  RH WIND       PRES   REMARKS
ALAMAGORDO     CLOUDY    45  30  57 S13       29.82R WCI  38
ALBUQUERQUE    MOCLDY    33  31  92 VRB3      29.74R
CANNON AFB     SUNNY     39  38  97 W18       29.65R WCI  29
CLOVIS         SUNNY     37  30  75 W10       29.65R WCI  30
HOLLOMAN AFB   PTCLDY    42  32  66 SE15      29.84R WCI  35
ROSWELL        SUNNY     42  30  62 SE6       29.70R WCI  38
RUIDOSO        LGT RAIN  34  27  75 SW22G29   29.76R WCI  22
SANTA FE       CLOUDY    32  23  69 W14       29.67S WCI  22
TRUTH OR CONSE CLEAR     43  28  55 SW10      29.75R WCI  37
TUCUMCARI      CLEAR     43  30  60 W10       29.62R WCI  37
$$

  • National Weather Service
  • Southern Region Headquarters
  • 819 Taylor Street, Room 10A06
  • Fort Worth, TX 76102
  • Page Author: NWS Fort Worth
  • Web Master: SR-SRH.Webmaster@noaa.gov
  •  
  • Page last modified: 30-Sep-2016 6:36 PM UTC
USA.gov is the U.S. government's official web portal to all federal, state and local government web resources and services.